FW2861 Weather Reports


time (UTC)temp
C
wind
direction
speed
KPH
gust
KPH
rain 1hr
cm
rain 24hr
cm
rain mn
cm
humidity
%
barometer
mb
20260507151257 16 91 3.2 9.7 0.00 0.00 0.99 53 1005.3
20260507150757 16 243 3.2 12.9 0.00 0.00 0.99 51 1005.4
20260507150258 16 219 3.2 12.9 0.00 0.00 0.99 54 1005.4
20260507145758 16 0 1.6 8.0 0.00 0.00 0.99 55 1005.4
20260507145257 16 50 3.2 6.4 0.00 0.00 0.99 55 1005.5
20260507143758 15 25 3.2 11.3 0.00 0.00 0.99 58 1005.6
20260507143255 15 42 3.2 9.7 0.00 0.00 0.99 59 1005.7
20260507142754 15 56 1.6 9.7 0.00 0.00 0.99 59 1005.7
20260507142254 15 0 3.2 8.0 0.00 0.00 0.99 59 1005.7
20260507141754 15 241 3.2 8.0 0.00 0.00 0.99 63 1005.7
20260507141253 15 243 3.2 9.7 0.00 0.00 0.99 62 1005.8
20260507140755 14 237 3.2 9.7 0.00 0.00 0.99 63 1005.8
20260507140254 14 248 3.2 9.7 0.00 0.00 0.99 64 1005.8
20260507135756 14 243 3.2 9.7 0.00 0.00 0.99 65 1005.8
20260507135254 14 353 3.2 9.7 0.00 0.00 0.99 66 1005.8
20260507133600 13 305 3.2 8.0 0.00 1.09 0.99 69 1005.9
20260507133059 13 236 3.2 11.3 0.00 1.09 0.99 69 1005.8
20260507132559 13 0 3.2 11.3 0.00 1.09 0.99 71 1005.8
20260507131555 13 316 3.2 9.7 0.00 1.09 0.99 76 1005.9
20260507131057 13 252 3.2 9.7 0.00 1.09 0.99 75 1006.0
20260507130558 12 352 1.6 9.7 0.00 1.09 0.99 78 1005.8
20260507130056 12 0 1.6 8.0 0.00 1.09 0.99 81 1005.9
20260507125558 12 32 3.2 8.0 0.00 1.09 0.99 84 1006.0
20260507124557 11 250 3.2 9.7 0.00 1.09 0.99 88 1006.0
20260507124057 10 0 1.6 9.7 0.00 1.09 0.99 88 1006.0
20260507123557 10 0 0.0 3.2 0.00 1.09 0.99 89 1006.2
20260507123059 10 0 1.6 4.8 0.00 1.09 0.99 91 1006.2
20260507122557 10 0 1.6 4.8 0.00 1.09 0.99 90 1006.3
20260507122059 10 233 1.6 6.4 0.00 1.09 0.99 91 1006.1
20260507121559 10 0 1.6 6.4 0.00 1.09 0.99 92 1006.0
20260507121046 10 0 1.6 4.8 0.00 1.09 0.99 93 1005.7
20260507120542 9 0 0.0 6.4 0.00 1.09 0.99 93 1005.7
20260507120043 9 0 1.6 6.4 0.00 1.09 0.99 93 1005.9
20260507115044 9 0 0.0 3.2 0.03 1.09 0.99 94 1005.8
20260507114543 9 0 1.6 3.2 0.05 1.09 0.99 94 1005.8
20260507114043 9 0 0.0 3.2 0.13 1.09 0.99 94 1005.8
20260507113544 9 247 0.0 3.2 0.23 1.09 0.99 94 1005.8
20260507113045 9 0 1.6 3.2 0.30 1.09 0.99 94 1005.7
20260507112527 9 261 1.6 4.8 0.33 1.09 0.99 94 1005.6
20260507112028 8 290 1.6 4.8 0.33 1.09 0.99 94 1005.6
20260507111528 8 240 1.6 4.8 0.36 1.09 0.99 95 1005.5
20260507110529 9 67 0.0 3.2 0.41 1.09 0.99 95 1005.4
20260507105530 9 241 0.0 4.8 0.41 1.07 0.99 95 1005.6
20260507105030 9 0 0.0 1.6 0.41 1.07 0.97 95 1005.4
20260507104531 9 0 1.6 6.4 0.38 1.02 0.94 94 1005.6
20260507104031 9 270 1.6 6.4 0.33 0.94 0.86 94 1005.5
20260507103529 9 267 1.6 3.2 0.20 0.84 0.74 94 1005.6
20260507103032 9 0 1.6 3.2 0.15 0.76 0.66 94 1006.0
20260507102528 9 254 1.6 3.2 0.15 0.74 0.66 94 1006.0
20260507102030 9 278 1.6 6.4 0.15 0.74 0.66 94 1005.7
20260507101530 9 0 1.6 6.4 0.15 0.71 0.64 94 1005.7
20260507101015 9 254 1.6 6.4 0.15 0.71 0.61 94 1005.5
20260507100514 9 326 1.6 4.8 0.13 0.69 0.58 94 1005.5
20260507095515 9 267 1.6 4.8 0.15 0.66 0.56 95 1005.3
20260507095016 10 248 1.6 4.8 0.15 0.66 0.56 94 1005.1
20260507094515 10 268 1.6 4.8 0.15 0.64 0.53 94 1005.0
20260507094015 10 163 1.6 4.8 0.15 0.61 0.53 94 1005.4
20260507093016 10 296 1.6 6.4 0.18 0.61 0.51 94 1005.2
20260507092016 10 254 3.2 8.0 0.23 0.58 0.51 94 1005.0
20260507091501 10 200 1.6 6.4 0.23 0.58 0.48 94 1004.9
20260507091000 10 0 1.6 8.0 0.23 0.56 0.48 94 1004.8
20260507090501 10 0 1.6 8.0 0.23 0.56 0.48 93 1004.8
20260507090001 10 145 1.6 4.8 0.20 0.53 0.43 93 1004.9
20260507085501 10 230 3.2 8.0 0.23 0.51 0.43 92 1004.7
20260507085002 10 21 3.2 8.0 0.25 0.51 0.41 92 1004.8
20260507084501 11 27 3.2 6.4 0.30 0.48 0.38 91 1004.9
20260507084001 11 241 3.2 9.7 0.38 0.48 0.38 92 1004.8
20260507083450 11 78 3.2 9.7 0.38 0.46 0.38 92 1004.7
20260507082947 11 80 3.2 9.7 0.33 0.43 0.33 92 1004.4
20260507082447 11 259 1.6 8.0 0.33 0.41 0.33 93 1004.5
20260507081946 11 310 1.6 8.0 0.28 0.38 0.28 94 1004.6
20260507080947 12 238 1.6 4.8 0.25 0.36 0.25 93 1004.9
20260507075932 12 0 1.6 9.7 0.23 0.33 0.23 91 1004.6
20260507075431 12 321 1.6 9.7 0.20 0.28 0.20 90 1004.6
20260507074931 12 0 1.6 4.8 0.15 0.23 0.15 88 1004.9
20260507074431 13 0 3.2 6.4 0.05 0.15 0.05 86 1004.9
20260507073431 13 32 3.2 9.7 0.00 0.10 0.00 85 1003.8
20260507072931 13 104 3.2 9.7 0.00 0.10 0.00 85 1003.6
20260507072433 13 108 1.6 4.8 0.00 0.10 0.00 85 1003.8
20260507071419 13 254 1.6 6.4 0.00 0.10 0.00 86 1003.6
20260507070917 13 15 1.6 8.0 0.00 0.10 0.00 86 1003.5
20260507065906 13 254 1.6 8.0 0.00 0.10 0.00 86 1003.7
20260507065404 13 248 1.6 9.7 0.00 0.10 0.00 85 1003.8
20260507064855 13 267 1.6 9.7 0.00 0.10 0.00 85 1003.7
20260507064354 13 22 3.2 9.7 0.00 0.10 0.00 84 1003.9
20260507063855 14 223 3.2 9.7 0.00 0.10 0.00 84 1004.0
20260507063355 14 232 1.6 8.0 0.00 0.10 0.00 85 1003.9
20260507062855 14 263 1.6 8.0 0.00 0.10 0.00 85 1003.7
20260507062355 14 0 1.6 8.0 0.00 0.10 0.00 86 1003.7
20260507061855 14 251 1.6 8.0 0.00 0.10 0.00 86 1003.7
20260507061356 14 0 1.6 8.0 0.00 0.10 0.00 86 1003.8
20260507060851 14 216 1.6 9.7 0.00 0.10 0.00 86 1004.0
20260507060351 14 263 1.6 11.3 0.00 0.10 0.00 88 1004.2
20260507055850 15 170 1.6 11.3 0.00 0.10 0.00 92 1004.1
20260507055348 15 178 1.6 9.7 0.00 0.10 0.00 94 1004.1
20260507054850 15 0 1.6 9.7 0.00 0.10 0.00 95 1004.0
20260507054347 15 241 1.6 9.7 0.00 0.10 0.00 96 1004.1
20260507053847 15 0 1.6 8.0 0.00 0.10 0.00 96 1004.1
20260507053346 15 281 3.2 9.7 0.00 0.10 0.00 97 1004.2
20260507052847 14 229 3.2 9.7 0.00 0.10 0.00 97 1004.3
20260507052348 14 0 0.0 6.4 0.00 0.10 0.00 98 1004.1
20260507051346 14 0 0.0 3.2 0.00 0.10 0.00 98 1004.2
20260507050846 14 0 1.6 6.4 0.00 0.10 0.00 98 1004.3
20260507045847 14 249 0.0 6.4 0.00 0.10 0.00 98 1004.3
20260507044846 14 240 3.2 8.0 0.00 0.10 0.00 98 1004.3
20260507044346 14 251 3.2 12.9 0.00 0.10 0.00 97 1004.2
20260507043845 14 263 4.8 12.9 0.00 0.10 0.00 97 1004.3
20260507043345 14 260 4.8 12.9 0.00 0.10 0.00 97 1004.0
20260507042845 14 223 4.8 14.5 0.00 0.10 0.00 97 1003.8
20260507042345 14 280 6.4 17.7 0.00 0.10 0.00 97 1004.0
20260507041842 14 247 6.4 17.7 0.00 0.10 0.00 97 1004.2
20260507041341 14 226 6.4 14.5 0.00 0.10 0.00 96 1004.2
20260507040840 14 300 6.4 14.5 0.00 0.10 0.00 96 1004.1
20260507035838 14 276 6.4 12.9 0.00 0.10 0.10 96 1004.2
20260507035340 14 268 6.4 11.3 0.00 0.10 0.10 96 1004.3
20260507034839 14 276 6.4 14.5 0.00 0.10 0.10 96 1004.4
20260507033840 14 268 8.0 17.7 0.00 0.10 0.10 96 1004.4
20260507033341 13 250 8.0 17.7 0.00 0.10 0.10 95 1004.3
20260507032842 13 272 8.0 17.7 0.00 0.10 0.10 96 1004.2
20260507032337 13 245 8.0 17.7 0.00 0.10 0.10 96 1004.2
20260507031837 13 257 8.0 17.7 0.00 0.10 0.10 96 1004.1
20260507031336 13 259 6.4 17.7 0.00 0.10 0.10 96 1004.0
20260507030837 13 289 6.4 17.7 0.00 0.10 0.10 96 1004.0
20260507030335 13 256 8.0 14.5 0.00 0.10 0.10 96 1003.9
20260507025335 13 253 8.0 17.7 0.00 0.10 0.10 96 1003.8
20260507024835 13 271 8.0 17.7 0.00 0.10 0.10 96 1003.9
20260507024335 13 270 8.0 17.7 0.00 0.10 0.10 96 1003.9
20260507023836 13 272 8.0 19.3 0.00 0.10 0.10 96 1003.9
20260507023335 13 212 8.0 19.3 0.00 0.10 0.10 96 1003.8
20260507022837 13 277 6.4 17.7 0.00 0.10 0.10 96 1003.8
20260507022336 13 260 6.4 17.7 0.00 0.10 0.10 96 1003.8
20260507021835 13 249 6.4 17.7 0.00 0.10 0.10 96 1003.8
20260507021333 13 256 6.4 12.9 0.00 0.10 0.10 96 1003.9
20260507020832 13 236 6.4 14.5 0.00 0.10 0.10 96 1003.9
20260507020333 13 260 6.4 14.5 0.00 0.10 0.10 96 1003.9
20260507015833 13 253 6.4 14.5 0.00 0.10 0.10 96 1004.0
20260507015335 13 233 6.4 16.1 0.00 0.10 0.10 96 1004.0
20260507014833 13 275 8.0 17.7 0.00 0.10 0.10 96 1004.2
20260507014334 13 255 8.0 17.7 0.00 0.10 0.10 96 1004.2
20260507013834 13 295 8.0 17.7 0.00 0.10 0.10 96 1004.3
20260507013334 13 271 8.0 17.7 0.00 0.10 0.10 96 1004.3
20260507012834 13 261 6.4 16.1 0.00 0.10 0.10 96 1004.3
20260507012332 13 245 6.4 19.3 0.00 0.10 0.10 96 1004.5
20260507011331 13 273 8.0 19.3 0.00 0.10 0.10 96 1004.5
20260507010326 13 281 8.0 17.7 0.00 0.10 0.10 95 1004.4
20260507005327 13 277 8.0 16.1 0.00 0.10 0.10 95 1004.4
20260507004827 13 286 8.0 20.9 0.00 0.10 0.10 95 1004.4
20260507003829 13 291 8.0 17.7 0.00 0.10 0.10 95 1004.3
20260507003328 13 245 8.0 17.7 0.00 0.10 0.10 95 1004.3
20260507002829 13 269 9.7 19.3 0.00 0.10 0.10 95 1004.4
20260507002329 13 266 8.0 19.3 0.00 0.10 0.10 95 1004.3
20260507001824 13 288 8.0 17.7 0.00 0.10 0.10 95 1004.4
20260507001327 13 261 8.0 17.7 0.00 0.10 0.10 95 1004.4
20260506235826 13 252 8.0 17.7 0.00 0.10 0.10 95 1004.1
20260506235328 13 266 8.0 17.7 0.00 0.10 0.10 94 1004.1
20260506234826 13 183 8.0 17.7 0.00 0.10 0.10 94 1004.1
20260506234326 13 260 8.0 17.7 0.00 0.10 0.10 94 1004.0
20260506233326 13 290 8.0 16.1 0.00 0.10 0.10 94 1004.0
20260506232826 13 278 8.0 16.1 0.00 0.10 0.10 94 1004.1
20260506232326 13 261 6.4 14.5 0.00 0.10 0.10 95 1004.2
20260506231323 13 298 6.4 14.5 0.00 0.10 0.10 95 1004.4
20260506230824 13 294 6.4 14.5 0.00 0.10 0.10 94 1004.4
20260506230323 13 253 6.4 14.5 0.00 0.10 0.08 95 1004.4
20260506225823 13 248 4.8 14.5 0.00 0.10 0.08 95 1004.4
20260506225323 13 256 4.8 14.5 0.00 0.10 0.08 95 1004.4
20260506224823 13 236 6.4 14.5 0.00 0.10 0.08 95 1004.3
20260506224324 13 295 6.4 14.5 0.00 0.10 0.08 95 1004.3
20260506223823 13 196 6.4 17.7 0.00 0.10 0.08 95 1004.5
20260506223322 13 241 6.4 17.7 0.00 0.10 0.08 95 1004.6
20260506222821 13 208 6.4 17.7 0.00 0.10 0.08 95 1004.7
20260506222321 14 252 6.4 17.7 0.00 0.10 0.08 94 1004.8
20260506221819 14 232 6.4 16.1 0.00 0.10 0.08 94 1004.8
20260506220816 14 253 6.4 17.7 0.03 0.10 0.08 93 1004.8
20260506220314 14 114 8.0 17.7 0.03 0.10 0.08 92 1004.9
20260506215316 15 228 6.4 16.1 0.05 0.10 0.08 90 1004.9
20260506214816 15 244 6.4 14.5 0.05 0.10 0.08 90 1005.0
20260506214316 15 239 6.4 14.5 0.05 0.10 0.08 90 1005.0
20260506213817 15 281 6.4 16.1 0.05 0.10 0.08 90 1004.9
20260506213316 15 162 8.0 17.7 0.05 0.10 0.08 90 1004.9
20260506212818 15 244 8.0 17.7 0.05 0.10 0.08 90 1004.9
20260506210813 15 247 6.4 14.5 0.03 0.08 0.05 89 1005.0
20260506210313 15 259 8.0 17.7 0.03 0.05 0.05 89 1005.1
20260506205812 15 295 9.7 17.7 0.03 0.05 0.05 88 1005.0
20260506205312 15 281 9.7 30.6 0.03 0.05 0.05 87 1005.1
20260506204814 15 255 9.7 30.6 0.03 0.05 0.05 86 1005.2
20260506204313 15 276 9.7 24.1 0.03 0.05 0.05 87 1005.1
20260506203813 16 259 9.7 22.5 0.03 0.05 0.05 86 1005.1
20260506203314 16 298 9.7 17.7 0.03 0.05 0.05 85 1005.1
20260506202812 16 257 9.7 20.9 0.05 0.05 0.05 85 1005.1
20260506202312 16 190 8.0 20.9 0.03 0.05 0.03 84 1005.1
20260506201308 16 273 8.0 17.7 0.03 0.05 0.03 83 1005.2
20260506200809 16 263 8.0 17.7 0.03 0.05 0.03 82 1005.3
20260506200309 16 277 8.0 17.7 0.03 0.05 0.03 82 1005.2
20260506195810 16 274 8.0 17.7 0.03 0.03 0.03 81 1005.2
20260506195309 16 294 6.4 20.9 0.03 0.03 0.03 80 1005.3
20260506194808 16 190 8.0 20.9 0.03 0.03 0.03 80 1005.5
20260506194309 17 279 8.0 19.3 0.00 0.03 0.00 78 1005.5
20260506193810 17 253 8.0 19.3 0.00 0.03 0.00 78 1005.5
20260506192308 17 304 8.0 17.7 0.00 0.00 0.00 73 1005.5
20260506191807 17 279 8.0 16.1 0.00 0.00 0.00 73 1005.6
20260506191308 17 268 8.0 17.7 0.00 0.00 0.00 72 1005.6
20260506190809 17 298 8.0 17.7 0.00 0.00 0.00 72 1005.6
20260506185809 18 273 8.0 19.3 0.00 0.00 0.00 72 1005.4
20260506185307 18 285 8.0 17.7 0.00 0.00 0.00 71 1005.4
20260506184807 18 269 8.0 17.7 0.00 0.00 0.00 71 1005.4
20260506184306 18 229 8.0 19.3 0.00 0.00 0.00 70 1005.6
20260506183806 18 246 8.0 19.3 0.00 0.00 0.00 70 1005.7
20260506183307 18 262 6.4 14.5 0.00 0.00 0.00 70 1005.7
20260506182307 18 272 8.0 17.7 0.00 0.00 0.00 69 1005.7
20260506181805 18 43 6.4 22.5 0.00 0.00 0.00 69 1005.7
20260506181306 18 325 8.0 22.5 0.00 0.00 0.00 69 1005.7
20260506180304 19 184 9.7 24.1 0.00 0.00 0.00 68 1005.9
20260506175806 19 299 9.7 25.7 0.00 0.00 0.00 68 1006.1
20260506175301 20 226 9.7 25.7 0.00 0.00 0.00 66 1006.2
20260506174801 20 272 9.7 19.3 0.00 0.00 0.00 66 1006.3
20260506174303 20 286 9.7 38.6 0.00 0.00 0.00 66 1006.3
20260506173802 20 287 9.7 38.6 0.00 0.00 0.00 65 1006.3
20260506172802 19 270 8.0 16.1 0.00 0.00 0.00 66 1006.3
20260506171759 20 156 6.4 17.7 0.00 0.00 0.00 66 1006.2
20260506171258 20 220 6.4 17.7 0.00 0.00 0.00 66 1006.2
20260506170758 19 229 8.0 17.7 0.00 0.00 0.00 66 1006.2
20260506170259 19 247 8.0 19.3 0.00 0.00 0.00 67 1006.3
20260506165759 19 174 9.7 22.5 0.00 0.00 0.00 67 1006.4
20260506165259 19 305 8.0 25.7 0.00 0.00 0.00 66 1006.6
20260506164800 20 284 8.0 25.7 0.00 0.00 0.00 66 1006.6
20260506164301 20 253 8.0 17.7 0.00 0.00 0.00 66 1006.7
20260506163800 19 267 8.0 17.7 0.00 0.00 0.00 66 1006.6
20260506163258 20 304 8.0 19.3 0.00 0.00 0.00 66 1006.9
20260506162754 20 268 8.0 19.3 0.00 0.00 0.00 66 1006.9
20260506162253 20 284 6.4 17.7 0.00 0.00 0.00 66 1006.9
20260506161257 20 262 6.4 19.3 0.00 0.00 0.00 64 1007.0
20260506160755 20 241 6.4 27.4 0.00 0.00 0.00 65 1007.1
20260506160257 20 274 8.0 27.4 0.00 0.00 0.00 65 1007.2
20260506155752 20 246 6.4 19.3 0.00 0.00 0.00 65 1007.2
20260506155253 20 260 6.4 19.3 0.00 0.00 0.00 65 1007.2
20260506154753 20 268 6.4 19.3 0.00 0.00 0.00 64 1007.4
20260506154252 21 251 6.4 19.3 0.00 0.00 0.00 63 1007.5
20260506153749 20 163 6.4 19.3 0.00 0.00 0.00 64 1007.7
20260506153249 20 290 6.4 16.1 0.00 0.00 0.00 64 1007.7
20260506152750 20 238 8.0 17.7 0.00 0.00 0.00 65 1007.7
20260506152250 20 229 8.0 17.7 0.00 0.00 0.00 65 1007.9
20260506151749 20 234 6.4 16.1 0.00 0.00 0.00 64 1007.8